Время (UTC), дата Ветер
(°,м/с) 
Видим.   Явления Облачность Т
(°С)
Тd
(°С)
f(%) Тe
(°С)
Pmin
(гПа)
dP
(гПа)
Po
(мм)
O2
(г/м3)
Тmin Tmax R s Состояние
почвы
00 01.01.13 290 (З) 10 км  слаб. снег  10/0 средняя 
[As op]
-8 -9.1 92 -10  1013.9  0.1  749  312           
03 01.01.13 300 (СЗ) 10 км  слаб. снег  10/0 средняя 
[As op]
-8.6 -9.7 92 -10  1014.1  0.2  749  313  -8.6    0.2  30  равномерный
сухой снег
100% 
06 01.01.13 300 (СЗ) 4000 м  снег  10/10 400 м 
[Ns]
-8.8 -9.9 92 -10  1014.8  0.6  750  313  -8.8         
09 01.01.13 290 (З) 10 км  слаб. снег  9/9 600 м 
[Sc]
-8.5 -9.8 90 -8  1015.7  0.9  750  313           
12 01.01.13 290 (З) 10 км  слаб. снег  10/0 средняя 
[As op]
-8.1 -9.5 90 -8  1017  1.3  751  313           
15 01.01.13 290 (З) 10 км  слаб. снег  10/0 средняя 
[Ac As]
-8 -9.3 90 -8  1018.2  1.3  752  313    -7.9  0.3     
18 01.01.13 300 (СЗ) 10 км  слаб. снег  10/0 <0100 м средняя 
[Ac As]
-8.2 -9.4 91 -8  1019.2  0.9  753  314           
21 01.01.13 280 (З) 10 км  в посл. час снег  10/10 400 м 
[St]
-8.7 -9.8 92 -8  1020.5  1.2  754  315           
00 02.01.13 320 (СЗ) 10 км  слаб. снег  10/10 400 м 
[Ns]
-8.8 -9.8 92 -9  1021.6  1.1  755  315           
03 02.01.13 тихо ()   0500 м  переохл. туман{снег} [диам. изморози 1 мм]  10/10 100 м 
[St]
-9.5 -10.5 92 -10  1022.3  0.7  755  316  -9.5    0.0  30  равномерный
сухой снег
100% 
06 02.01.13 160 (Ю) 0500 м  сильн. снег [диам. изморози 1 мм]  10/10 100 м 
[St]
-10 -11 92 -10  1023.6  1.2  756  317  -9.9         
09 02.01.13 150 (ЮВ) 4000 м  в посл. час снег  10/0 средняя 
[As op]
-11.2 -12.3 92 -13  1023.9  0.2  756  319           
12 02.01.13 150 (ЮВ) 0500 м  слаб. снег{туман} [диам. изморози 3 мм]  10/0 средняя 
[As op]
-12.2 -13.4 91 -14  1024  0.1  756  320           
15 02.01.13 160 (Ю) 0500 м  переохл. туман{снег} [диам. изморози 7 мм]  10/0 средняя 
[As op]
-12 -13.3 90 -14  1023.4  -0.6  756  320    -9.5  0.0     
18 02.01.13 150 (ЮВ) 0500 м  переохл. туман{снег} [диам. изморози 9 мм]  10/10 120 м 
[St]
-11.5 -12.8 90 -13  1022  -0.6  755  319           
21 02.01.13 160 (Ю) 4000 м  снег{туман} [диам. изморози 10 мм]  10/10 400 м 
[Ns]
-10.7 -11.9 91 -14  1020.4  -1.5  754  317           
00 03.01.13 160 (Ю) 10 км  {снег, туман} [диам. изморози 9 мм]  10/0 средняя 
[As op]
-9.9 -11.1 91 -13  1018.9  -1.4  753  316           
03 03.01.13 170 (Ю) 4000 м  дымка [диам. изморози 9 мм]  10/0 средняя 
[As op]
-8 -9 93 -8  1017.5  -1.3  752  313  -12.4    0.6  31  равномерный
сухой снег
100% 
06 03.01.13 160 (Ю) 2000 м  снежные зёрна [диам. изморози 9 мм]  10/10 180 м 
[St]
-6.6 -7.5 93 -8  1016.7  -0.7  751  311           
09 03.01.13 180 (Ю) 2000 м  снежные зёрна [диам. изморози 10 мм]  10/10 180 м 
[St]
-4.9 -5.7 94 -6  1015.3  -1.3  750  308           
12 03.01.13 180 (Ю) 2000 м  снежные зёрна [диам. изморози 10 мм]  10/10 180 м 
[St]
-4.5 -5.2 95 -6  1014.1  -1.1  749  308           
15 03.01.13 170 (Ю) 2000 м  снежные зёрна [диам. изморози 10 мм]  10/10 180 м 
[St]
-4.4 -5.1 95 -6  1013.2  -0.9  749  307    -4.3  0.4     
18 03.01.13 180 (Ю) 2000 м  снежные зёрна [диам. изморози 10 мм]  10/10 180 м 
[St]
-5.5 -6.1 96 -7  1011.8  -1.5  748  308           
21 03.01.13 160 (Ю) 2000 м  снежные зёрна [диам. изморози 10 мм]  10/10 180 м 
[St]
-5.1 -5.8 95 -6  1010.2  -1.6  747  307           
00 04.01.13 160 (Ю) 2000 м  снежные зёрна [диам. изморози 10 мм]  10/10 180 м 
[St]
-4.8 -5.4 96 -6  1008.4  -1.7  745  306           
03 04.01.13 160 (Ю) 2000 м  снежные зёрна [диам. изморози 10 мм]  10/10 200 м 
[St]
-4.2 -4.8 96 -5  1006  -2.3  744  305  -5.5    0.5  31  равномерный
сухой снег
100% 
06 04.01.13 160 (Ю) 1000 м  снег{морось} [диам. изморози 10 мм]  10/10 300 м 
[Ns]
-3.4 -4 96 -5  1005  -1  743  304           
09 04.01.13 180 (Ю) 4000 м  слаб. снег [диам. изморози 10 мм]  10/10 330 м 
[Ns]
-2.5 -3.1 96 -2  1004.4  -0.6  742  302           
12 04.01.13 260 (З) 4000 м  слаб. снег [диам. изморози 10 мм]  10/10 400 м 
[Ns]
-2.4 -3 96 -3  1004.8  0.4  743  302           
15 04.01.13 250 (З) 4000 м  слаб. снег [диам. изморози 10 мм]  10/0 <0100 м средняя 
[As op]
-3.3 -3.8 96 -4  1005.9  1.1  743  304    -1.8     
18 04.01.13 240 (ЮЗ) 4000 м  слаб. снег [диам. изморози 10 мм]  10/10 360 м 
[Ns]
-2.6 -3.1 96 -4  1006.2  0.3  744  303           
21 04.01.13 280 (З) 10 км  в посл. час снег [диам. изморози 10 мм]  10/10 300 м 
[Frnb]
-1.9 -2.5 96 -1  1006.6  0.4  744  302           
00 05.01.13 300 (СЗ) 10 км  {снег} [диам. изморози 10 мм]  10/10 750 м 
[Sc]
-1.9 -2.7 94 -1  1007.2  0.6  744  302           
03 05.01.13 290 (З) 10 км  [диам. изморози 10 мм]  10/10 800 м 
[Sc]
-2.4 -3.2 94 -2  1007.5  0.3  745  303  -3.3    0.6  32  равномерный
сухой снег
100% 
06 05.01.13 310 (СЗ) 10 км  [диам. изморози 10 мм]  9/9 600 м 
[Sc]
-2.7 -3.8 92 -2  1008.2  0.7  745  304           
09 05.01.13 270 (З) 10 км  [диам. изморози 10 мм]  10/10 480 м 
[Sc]
-2.3 -3.9 89 -3  1009  0.8  746  303           
12 05.01.13 180 (Ю) 10 км  [диам. изморози 10 мм]  10/10 330 м 
[St]
-2.6 -4.3 88 -2  1009.5  0.5  746  304           
15 05.01.13 140 (ЮВ) 10 км  [диам. изморози 10 мм]  10/0 средняя 
[As op]
-3.7 -5 91 -3  1010.1  0.5  747  305    -2       
18 05.01.13 110 (В) 4000 м  слаб. снег [диам. изморози 10 мм]  10/10 360 м 
[Ns]
-3.5 -4.7 91 -3  1010.3  0.2  747  305           
12 06.01.13 130 (ЮВ) 4000 м  слаб. снег [диам. изморози 10 мм]  10/10 480 м 
[Ns]
-4.7 -5.7 93 -6  1014.6  0.8  750  308           
15 06.01.13 140 (ЮВ) 10 км  {снег} [диам. изморози 10 мм]  10/10 540 м 
[Sc]
-5 -6.1 92 -7  1015.1  0.5  750  309    -4.1     
18 06.01.13 160 (Ю) 10 км  {снег} [диам. изморози 10 мм]  10/10 240 м 
[St]
-5.6 -6.8 91 -7  1016.4  1.2  751  310           
21 06.01.13 110 (В) 10 км  слаб. снег [диам. изморози 10 мм]  10/10 240 м 
[Frnb|Ns]
-5.3 -6.5 91 -7  1017  0.5  752  310           
00 07.01.13 110 (В) 4000 м  снег  10/10 330 м 
[Ns]
-5.3 -6.4 92 -7  1017.5  0.5  752  310           
12 07.01.13 140 (ЮВ) 10 км  слаб. снег  10/10 240 м 
[Ns]
-4.6 -5.9 91 -4  1020.3  0.5  754  310           
15 07.01.13 140 (ЮВ) 10 км  слаб. снег  10/10 200 м 
[Ns]
-4.9 -6 92 -6  1020.9  0.5  754  310    -4.4     
18 07.01.13 150 (ЮВ) 10 км  слаб. снег  10/10 240 м 
[Ns]
-5.1 -6.2 92 -5  1021.4  0.6  755  311           
21 07.01.13 140 (ЮВ) 10 км  слаб. снег  10/0 средняя 
[As op]
-5.6 -6.6 93 -5  1021.6  0.2  755  311           
00 08.01.13 160 (Ю) 10 км  {снег}  10/0 средняя 
[Ac As]
-5.9 -6.9 93 -7  1021.5  -0.1  755  312           
03 08.01.13 160 (Ю) 4000 м  снег  10/10 210 м 
[Ns]
-5.9 -6.8 93 -6  1021.1  -0.1  755  312  -6    37  равномерный
сухой снег
100% 
06 08.01.13 160 (Ю) 10 км  {снег}  8/0 средняя 
[As op]
-6.5 -7.4 93 -6  1021.1  0.1  755  312  -6.5         
09 08.01.13 160 (Ю) 10 км  слаб. снег  9/0 средняя 
[As op]
-6.1 -7.3 91 -6  1020.7  -0.4  754  312           
21 08.01.13 160 (Ю) 10 км  {снег}  10/10 480 м 
[Sc]
-6.9 -7.9 92 -7  1019  -0.6  753  312           
00 09.01.13 320 (СЗ) 10 км  {снег}  10/10 500 м 
[Sc]
-6.2 -7.2 92 -6  1017.9  -1  752  311           
03 09.01.13 050 (СВ) 2000 м  дымка  10/10 300 м 
[St]
-5.8 -6.8 92 -7  1017.2  -0.6  752  310  -7.1    0.2  37  равномерный
сухой снег
100% 
06 09.01.13 080 (В) 4000 м  слаб. снег  10/10 400 м 
[Ns]
-7.5 -8.7 91 -9  1017.2  0.1  752  312  -7.5         
09 09.01.13 030 (СВ) 10 км  {снег}  5/0 средняя 
[Ac As]
-10.4 -12.5 84 -12  1016.8  -0.6  751  316           
12 09.01.13 020 (С) 10 км  {снег}  3/0 средняя 
[Ac lent]
-11.2 -13.4 84 -13  1016.4  -0.4  751  317           
15 09.01.13 010 (С) 10 км    4/0 верхняя 
[Ci fib]
-13.4 -15.1 87 -16  1016.2  -0.4  751  319    -5.8  0.0     
18 09.01.13 060 (СВ) 10 км    6/0 <0100 м верхняя 
[Cs]
-15.1 -16.7 87 -17  1016  -0.3  750  321           
21 09.01.13 040 (СВ) 1000 м  слаб. снег [диам. изморози 10 мм]  10/8 270 м средняя 
[St|As trans]
-15.6 -17.2 87 -18  1015.7  -0.2  750  322           
00 10.01.13 030 (СВ) 2000 м  слаб. снег [диам. изморози 13 мм]  10/3 330 м средняя 
[St|As trans]
-16 -17.7 87 -16  1015.5  -0.3  750  322           
03 10.01.13 340 (С) 4000 м  слаб. снег [диам. изморози 20 мм]  10/0 <0100 м средняя 
[As trans]
-16.7 -18.5 86 -17  1015.5  0.1  750  323  -16.7    0.0  37  равномерный
сухой снег
100% 
06 10.01.13 тихо ()   4000 м  слаб. снег [диам. изморози 25 мм]  8/8 840 м 
[Sc]
-16.7 -18.5 86 -17  1015.9  0.5  750  324  -17         
09 10.01.13 тихо ()   10 км  {снег} [диам. изморози 25 мм]  ясно 
-14.9 -16.6 87 -15  1015.8  750  321           
12 10.01.13 300 (СЗ) 10 км  {снег} [диам. изморози 25 мм]  ясно 
-16 -17.8 86 -16  1016.1  0.2  750  323           
15 10.01.13 280 (З) 10 км  [диам. изморози 25 мм]  ясно 
-16.8 -18.6 85 -17  1016.1  750  324    -13.9  0.0     
18 10.01.13 280 (З) 10 км  [диам. изморози 25 мм]  ясно 
-17.2 -19 86 -17  1016.6  0.4  751  324           
21 10.01.13 290 (З) 10 км  [диам. изморози 25 мм]  ясно 
-17.6 -19.4 86 -18  1016.9  0.2  751  325           
00 11.01.13 300 (СЗ) 10 км  [диам. изморози 25 мм]  ясно 
-18.4 -20.3 85 -19  1017.4  0.4  751  326           
03 11.01.13 310 (СЗ) 10 км  [диам. изморози 25 мм]  5/0 средняя 
[Ac lent]
-18.8 -20.8 84 -19  1017.4  751  327  -19.9      37  равномерный
сухой снег
100% 
06 11.01.13 тихо ()   10 км  [диам. изморози 25 мм]  6/0 верхняя 
[Cs]
-19.5 -21.6 83 -20  1018.7  1.2  752  328  -19.9         
09 11.01.13 300 (СЗ) 10 км  [диам. изморози 25 мм]  6/0 верхняя 
[Cs]
-16.9 -18.9 85 -17  1018.8  1.2  752  325           
12 11.01.13 290 (З) 10 км  [диам. изморози 25 мм]  4/0 верхняя 
[Ci fib]
-17.8 -19.9 83 -18  1019.3  0.4  753  326           
15 11.01.13 010 (С) 10 км  [диам. изморози 25 мм]  4/0 верхняя 
[Ci fib]
-19.5 -21.6 83 -20  1019.9  0.5  753  328    -16.4       
18 11.01.13 150 (ЮВ) 10 км  [диам. изморози 25 мм]  ясно 
-20.5 -22.7 83 -21  1020.3  0.3  753  330           
21 11.01.13 030 (СВ) 10 км  [диам. изморози 25 мм]  ясно 
-20.4 -22.5 83 -21  1021  0.7  754  330           
00 12.01.13 020 (С) 10 км  [диам. изморози 25 мм]  8/0 верхняя 
[Cs]
-19.5 -21.6 83 -20  1021.4  0.5  754  329           
03 12.01.13 тихо ()   10 км  [диам. изморози 25 мм]  8/0 верхняя 
[Cs]
-19.7 -21.8 83 -20  1020.6  -0.8  754  329  -20.7      37  равномерный
сухой снег
100% 
06 12.01.13 290 (З) 10 км  [диам. изморози 25 мм]  6/0 верхняя 
[Cs]
-20 -22.2 82 -20  1021.7  754  330           
09 12.01.13 280 (З) 4000 м  [диам. изморози 25 мм]  ясно 
-18.7 -21 82 -19  1021.3  -0.3  754  328           
12 12.01.13 280 (З) 4000 м  дымка [диам. изморози 25 мм]  5/0 верхняя 
[Cs]
-18.7 -20.8 84 -19  1021.1  0.1  754  328           
15 12.01.13 260 (З) 10 км  [диам. изморози 25 мм]  10/0 средняя 
[As op]
-17 -18.9 85 -17  1020.2  -0.8  753  325    -17       
18 12.01.13 280 (З) 10 км  [диам. изморози 25 мм]  10/0 средняя 
[As op]
-17.3 -19.2 85 -20  1019.3  -1  753  325           
21 12.01.13 260 (З) 10 км  [диам. изморози 25 мм]  10/0 средняя 
[As op]
-16.5 -18.3 86 -17  1017.4  -1.8  751  324           
00 13.01.13 250 (З) 10 км  [диам. изморози 25 мм]  10/0 средняя 
[As op]
-16.6 -18.5 86 -19  1016  -1.4  750  323           
03 13.01.13 240 (ЮЗ) 10 км  [диам. изморози 25 мм]  10/0 средняя 
[As op]
-15.3 -17 87 -19  1012.9  -3  748  321  -17.7      37  равномерный
сухой снег
100% 
06 13.01.13 240 (ЮЗ) 10 км  [диам. изморози 25 мм]  10/0 средняя 
[As op]
-13.7 -15.3 87 -17  1010.8  -1.9  747  318  -17.7         
09 13.01.13 250 (З) 10 км  {снег} [диам. изморози 25 мм]  10/0 средняя 
[As op]
-13.2 -14.8 87 -17  1009.2  -1.6  746  317           
12 13.01.13 290 (З) 4000 м  {снег}  10/0 средняя 
[As op]
-13.6 -15.5 86 -18  1008.6  -0.6  745  317           
18 13.01.13 300 (СЗ) 10 км  слаб. снег  10/0 средняя 
[As op]
-13.2 -15.3 84 -17  1009.6  0.4  746  317           
21 13.01.13 300 (СЗ) 10 км  слаб. снег  10/6 300 м средняя 
[Frnb|As op]
-12.7 -14.4 87 -16  1010.3  0.8  746  317           
00 14.01.13 290 (З) 10 км  слаб. снег  10/0 средняя 
[As op]
-12.1 -13.6 88 -15  1011.3  747  316           
03 14.01.13 290 (З) 10 км  слаб. снег  10/0 средняя 
[As op]
-12.4 -14 88 -17  1011  -0.3  747  316  -13.7    0.3  38  равномерный
сухой снег
100% 
06 14.01.13 290 (З) 10 км  слаб. снег  10/10 540 м 
[Ns]
-11.7 -13.8 84 -15  1010.6  -0.4  747  316           
09 14.01.13 300 (СЗ) 4000 м  слаб. снег  10/10 540 м 
[Ns]
-10.2 -12.6 83 -13  1010.2  -0.3  746  314           
12 14.01.13 280 (З) 4000 м  слаб. снег  10/10 480 м 
[Ns]
-9.8 -12 84 -12  1010.4  0.2  746  313           
15 14.01.13 290 (З) 4000 м  слаб. снег  10/10 480 м 
[Ns]
-9.8 -12.1 83 -13  1010.6  0.2  747  313    -9.7  0.1     
18 14.01.13 290 (З) 10 км  слаб. снег  10/10 450 м 
[Ns]
-9.1 -11.1 85 -11  1010.2  -0.4  746  312           
21 14.01.13 290 (З) 4000 м  снег  10/10 400 м 
[Ns]
-8.5 -10.2 88 -11  1009.1  -1  746  311           
00 15.01.13 290 (З) 10 км  слаб. снег  10/10 330 м 
[Frnb|Ns]
-7.4 -9.2 87 -11  1008.8  -0.2  745  310           
03 15.01.13 300 (СЗ) 10 км  в посл. час снег  ясно 
-7.4 -9.1 87 -10  1009.5  0.7  746  310  -9.9    0.3  38  равномерный
сухой снег
100% 
06 15.01.13 290 (З) 10 км  в посл. час снег  10/8 720 м верхняя 
[Sc|Ci fib]
-7.3 -8.7 90 -9  1011.5  1.9  747  310           
09 15.01.13 290 (З) 10 км  слаб. снег  10/9 660 м верхняя 
[Sc|Ci fib]
-6.4 -8.4 86 -9  1012.3  0.9  748  310           
12 15.01.13 300 (СЗ) 10 км  в посл. час снег{ливн. осадки}  9/9 660 м 
[Sc]
-6.7 -9.4 81 -8  1013.6  1.2  749  310           
15 15.01.13 300 (СЗ) 4000 м  слаб. снег  10/5 750 м средняя 
[Sc|Ac trans]
-7.7 -10.3 82 -10  1015.3  1.6  750  312    -6  0.2     
18 15.01.13 300 (СЗ) 4000 м  слаб. снег  9/9 720 м 
[Sc]
-8.6 -10.4 87 -11  1016.7  1.3  751  314           
21 15.01.13 290 (З) 4000 м  слаб. снег  9/9 600 м 
[Sc]
-9 -10.5 89 -11  1018.2  1.5  752  315           
00 16.01.13 280 (З) 10 км  {снег}  ясно 
-10.4 -11.6 91 -10  1019.1  0.8  753  317           
03 16.01.13 290 (З) 10 км  [диам. изморози 1 мм]  9/9 540 м 
[Sc]
-9.9 -11.1 91 -10  1019.7  0.6  753  316  -11.5    0.0  38  равномерный
сухой снег
100% 
06 16.01.13 270 (З) 10 км  [диам. изморози 2 мм]  9/9 600 м 
[Sc]
-11.3 -12.6 90 -11  1020.2  0.4  754  318  -12.8         
09 16.01.13 280 (З) 10 км  [диам. изморози 2 мм]  ясно 
-9 -10.4 89 -11  1020.3  0.2  754  315           
12 16.01.13 290 (З) 10 км  [диам. изморози 2 мм]  10/0 <0100 м средняя 
[As op]
-9 -10.8 87 -9  1020.9  0.6  754  315           
15 16.01.13 350 (С) 10 км    4/0 <0100 м верхняя 
[Ci fib]
-9.4 -11.1 87 -9  1021.9  0.9  755  316    -8.6       
18 16.01.13 080 (В) 10 км    10/1 600 м верхняя 
[Sc|Cs]
-13.5 -15.8 83 -16  1023.6  1.5  756  322           
21 16.01.13 090 (В) 10 км    10/0 верхняя 
[Ci fib]
-15.6 -18 82 -18  1024.6  0.9  757  325           
00 17.01.13 090 (В) 10 км    3/0 верхняя 
[Ci fib]
-17.5 -20.2 79 -20  1025.8  758  328           
03 17.01.13 090 (В) 10 км    5/0 верхняя 
[Ci fib]
-19.2 -22.6 75 -23  1026.4  0.4  758  330  -19.2      38  равномерный
сухой снег
100% 
06 17.01.13 080 (В) 10 км    10/0 средняя, верхняя 
[Ac As|Ci fib]
-21 -24.6 73 -25  1027.1  0.6  758  333  -21         
09 17.01.13 090 (В) 10 км    9/0 средняя, верхняя 
[As op|Ci fib]
-19.4 -23.8 68 -24  1027.3  0.3  759  331           
12 17.01.13 090 (В) 10 км    9/0 средняя, верхняя 
[Ac As|Ci fib]
-18.9 -24.6 61 -23  1027  -0.2  758  330           
15 17.01.13 100 (В) 10 км    9/0 верхняя 
[Ci fib]
-19.9 -25.2 63 -24  1027.6  0.5  759  331    -18.8       
18 17.01.13 100 (В) 3{10}  10 км    10/0 <0100 м верхняя 
[Ci fib]
-20.8 -25.9 63 -25  1027.6  759  333           
21 17.01.13 110 (В) 10 км    10/0 верхняя 
[Ci fib]
-20.8 -25.5 66 -25  1027  -0.6  758  332           
00 18.01.13 090 (В) 10 км    10/0 <0100 м верхняя 
[Ci fib]
-20.1 -24.4 69 -23  1026.2  -0.7  758  331           
03 18.01.13 100 (В) 10 км    8/0 верхняя 
[Ci fib]
-20.5 -24.3 72 -25  1025.3  -0.9  757  332  -20.9      38  равномерный
сухой снег
100% 
06 18.01.13 100 (В) 10 км    8/0 верхняя 
[Cs]
-20.4 -23.7 75 -23  1024.9  -0.4  757  331           
09 18.01.13 110 (В) 10 км  слаб. снег  10/0 средняя 
[Ac As]
-18.2 -21.4 76 -22  1023.2  -1.5  756  328           
12 18.01.13 110 (В) 4000 м  слаб. снег  10/0 средняя 
[As trans]
-15.3 -18.1 79 -18  1020.9  -2.1  754  323           
15 18.01.13 110 (В) 2000 м  снег  10/10 750 м 
[Ns]
-14.2 -16.3 84 -16  1019.4  -1.5  753  321    -14.2  0.9     
18 18.01.13 110 (В) 10 км  слаб. снег  10/0 средняя 
[As op]
-12.5 -14.3 87 -16  1017.1  -2.1  751  319           
21 18.01.13 110 (В) 4000 м  слаб. снег  10/0 средняя 
[As op]
-11.6 -13.3 87 -14  1015.4  -1.7  750  317           
00 19.01.13 100 (В) 4000 м  снег  10/10 480 м 
[Ns]
-10.2 -11.7 89 -12  1013.4  -1.8  749  315           
03 19.01.13 100 (В) 10 км  {снег}  10/10 750 м 
[Sc]
-9.4 -10.8 90 -11  1011.6  -1.7  747  313  -14.2    40  равномерный
сухой снег
100% 
06 19.01.13 110 (В) 4000 м  слаб. снег  10/10 600 м 
[Sc]
-8.8 -10.1 90 -10  1010.6  -0.9  747  312  -14.2         
09 19.01.13 180 (Ю) 10 км  {снег}  10/0 средняя 
[Ac As]
-6.6 -8 90 -6  1009.9  -0.6  746  309           
12 19.01.13 170 (Ю) 4000 м  слаб. снег  10/10 700 м 
[Sc]
-6.7 -8 91 -6  1009  -0.9  746  309           
15 19.01.13 тихо ()   4000 м  слаб. снег  10/10 630 м 
[Sc]
-6.5 -7.6 92 -7  1008.6  -0.4  745  308    -6.3     
18 19.01.13 270 (З) 4000 м  слаб. снег  10/6 600 м средняя 
[Sc|Ac trans]
-6.4 -7.4 93 -6  1008.7  0.1  745  308           
21 19.01.13 290 (З) 10 км  слаб. снег  10/10 630 м 
[Sc]
-7.6 -8.8 91 -9  1009  0.3  746  310           
00 20.01.13 310 (СЗ) 10 км  слаб. снег  10/10 500 м 
[Sc]
-8.7 -9.9 91 -10  1009.2  0.1  746  311           
03 20.01.13 тихо ()   4000 м  слаб. снег  10/10 480 м 
[Sc]
-9 -10.5 89 -9  1009.1  0.1  746  312  -9.4    41  равномерный
сухой снег
100% 
06 20.01.13 тихо ()   4000 м  слаб. снег  10/10 480 м 
[Ns]
-8.4 -9.9 89 -8  1009.2  0.1  746  311           
09 20.01.13 160 (Ю) 10 км  слаб. снег  10/10 870 м 
[Ns]
-6.6 -8.4 87 -6  1008.7  -0.3  745  309           
12 20.01.13 110 (В) 10 км  {снег}  10/10 900 м 
[Sc]
-6 -7.9 86 -6  1007.8  -0.8  745  308           
15 20.01.13 100 (В) 10 км    10/10 840 м 
[Sc]
-6.3 -7.9 88 -8  1007.5  -0.3  745  308    -5.7  0.0     
18 20.01.13 110 (В) 10 км    10/10 300 м 
[St]
-5.5 -6.7 91 -8  1006.3  -1.2  744  306    -5.5       
21 20.01.13 120 (ЮВ) 10 км    10/10 300 м 
[St]
-4.5 -5.5 93 -4  1005.2  -1  743  305           
00 21.01.13 130 (ЮВ) 2000 м  дымка  10/10 300 м 
[St]
-3.5 -4.4 93 -3  1004.3  -0.9  742  303           
03 21.01.13 150 (ЮВ) 0200 м  туман  10/10 300 м 
[St]
-2.2 -2.8 96 -2  1003.2  -1  742  302  -6.3      41  равномерный
сухой снег
100% 
06 21.01.13 180 (Ю) 2000 м  слаб. снег{туман}  10/10 450 м 
[Ns]
-0.8 -1.3 96 1002.6  -0.6  741  300           
09 21.01.13 250 (З) 10 км  {снег}  10/8 480 м средняя 
[Sc|As op]
+1.1 +0.4 95 1002  -0.6  741  297           
12 21.01.13 190 (Ю) 10 км  в посл. час морось{снег}  10/8 400 м средняя 
[St|As op]
+1.3 +0.3 93 +1  1000.8  -1.2  740  297           
15 21.01.13 170 (Ю) 2000 м  снег  10/10 450 м 
[Ns]
+0.1 -0.6 95 -1  998.4  -2.4  738  297    +1.6     
18 21.01.13 190 (Ю) 1000 м  снег  10/10 450 м 
[Ns]
-0.3 -0.8 96 -2  995.6  -2.7  736  297           
21 21.01.13 280 (З) 4-10{12}  4000 м  слаб. снег [диам. гололёда 1 мм]  10/10 300 м 
[Ns]
-2.2 -3 94 -5  995.1  -0.6  736  299           
00 22.01.13 280 (З) 3{10}  4000 м  слаб. снег [диам. гололёда 1 мм]  10/10 480 м 
[Ns]
-5 -6.6 89 -7  995.2  0.1  735  303           
03 22.01.13 290 (З) 5-10{12}  4000 м  слаб. снег [диам. гололёда 1 мм]  10/10 300 м 
[Ns]
-9.1 -11.5 83 -14  995.8  0.3  736  308  -9.1    43  равномерный
сухой снег
100% 
09 22.01.13 310 (СЗ) 4000 м  слаб. снег  10/10 800 м 
[Ns]
-10.6 -13.1 82 -15  998.3  1.3  737  310           
12 22.01.13 300 (СЗ) 10 км  {снег}  8/8 800 м 
[Sc]
-10.9 -13.3 82 -15  999.9  1.6  739  311           
18 22.01.13 300 (СЗ) 10 км  слаб. снег  10/6 400 м средняя 
[St|As op]
-13.6 -15.5 86 -17  1003.9  1.2  742  316           
21 22.01.13 290 (З) 10 км  {снег}  10/0 средняя 
[Ac cast]
-16.2 -18.1 85 -20  1004.7  0.7  742  319           
00 23.01.13 250 (З) 10 км  {снег}  10/0 средняя 
[Ac As]
-15.5 -17.8 83 -18  1004.7  742  318           
03 23.01.13 290 (З) 10 км  слаб. снег  10/10 480 м 
[Sc]
-14.6 -16.8 83 -17  1005.1  0.5  742  317  -16.3    0.2  44  равномерный
сухой снег
100% 
06 23.01.13 280 (З) 10 км  слаб. снег  10/10 540 м 
[Sc]
-13.5 -16.8 76 -16  1005.1  743  316      0.2     
09 23.01.13 280 (З) 10 км  слаб. снег  10/0 средняя 
[As op]
-11.7 -14.1 82 -15  1006.8  0.7  744  314           
12 23.01.13 250 (З) 10 км  слаб. снег  10/3 600 м средняя 
[Sc|Ac As]
-11.6 -14.3 81 -15  1007.2  0.4  744  314           
15 23.01.13 180 (Ю) 10 км  в посл. час снег  10/3 600 м средняя 
[Sc|Ac lent]
-12.5 -14.8 83 -12  1006.8  -0.4  744  315    -11.4  0.2     
18 23.01.13 230 (ЮЗ) 10 км  {снег}  10/0 средняя 
[Ac As]
-12.9 -14.9 85 -13  1006.6  -0.2  744  316           
21 23.01.13 270 (З) 10 км  {снег}  10/10 600 м 
[Sc]
-11.8 -13.4 88 -14  1006.7  0.2  744  314           
00 24.01.13 300 (СЗ) 10 км    10/0 средняя 
[Ac As]
-11.5 -13.4 86 -15  1007.3  0.6  744  314           
03 24.01.13 300 (СЗ) 10 км    10/10 480 м 
[Sc]
-11.5 -13.4 86 -15  1008.1  0.6  745  314  -13.1    0.0  44  равномерный
сухой снег
100% 
06 24.01.13 300 (СЗ) 10 км  слаб. снег  9/9 600 м 
[Sc]
-11.1 -13.3 84 -14  1009  0.9  745  314           
09 24.01.13 300 (СЗ) 10 км  слаб. снег  8/8 660 м 
[Sc]
-11.4 -13.6 84 -13  1009.6  0.6  746  315           
12 24.01.13 280 (З) 10 км  в посл. час снег  8/0 <0100 м верхняя 
[Cs]
-12.1 -14.2 84 -14  1009.7  0.1  746  316           
15 24.01.13 310 (СЗ) 10 км  [диам. изморози 1 мм]  8/0 <0100 м верхняя 
[Cs]
-14.2 -15.6 89 -14  1009.7  0.1  746  318    -10.9  0.0     
18 24.01.13 030 (СВ) 10 км  [диам. изморози 2 мм]  6/0 средняя, верхняя 
[Ac trans|Cs]
-15.3 -16.8 89 -18  1009.5  -0.3  746  320           
21 24.01.13 тихо ()   10 км  [диам. изморози 2 мм]  4/0 верхняя 
[Cs]
-20.1 -22 85 -20  1009  -0.7  745  326           
00 25.01.13 тихо ()   10 км  [диам. изморози 2 мм]  9/0 средняя, верхняя 
[Ac lent|Cs]
-22.5 -24.7 82 -23  1008.4  -0.7  744  329           
03 25.01.13 270 (З) 1000 м  дымка [диам. изморози 2 мм]  10/0 средняя 
[Ac As]
-18.6 -20.6 84 -19  1007.7  -0.4  744  323  -22.5      44  равномерный
сухой снег
100% 
06 25.01.13 170 (Ю) 2000 м  в посл. час туман{снег} [диам. изморози 5 мм]  10/10 180 м 
[St]
-17.9 -19.9 84 -18  1007.6  744  322           
09 25.01.13 210 (ЮЗ) 4000 м  слаб. снег [диам. изморози 6 мм]  10/0 средняя 
[As op]
-15.6 -17.4 86 -16  1007.4  0.1  744  319           
12 25.01.13 280 (З) 10 км  {снег} [диам. изморози 6 мм]  ясно 
-15.9 -17.8 85 -20  1008  0.5  744  320           
15 25.01.13 280 (З) 10 км  слаб. снег [диам. изморози 6 мм]  10/10 700 м 
[Sc]
-15.7 -17.6 86 -18  1009.4  1.4  746  320    -14.3  0.0     
18 25.01.13 300 (СЗ) 10 км  слаб. снег [диам. изморози 6 мм]  10/6 600 м средняя 
[Sc|As op]
-13.7 -15.6 85 -17  1010.7  1.4  747  318           
21 25.01.13 290 (З) 10 км  слаб. снег  10/0 средняя 
[As op]
-14 -17.3 76 -19  1013  2.2  748  319           
00 26.01.13 290 (З) 10 км  слаб. снег  10/0 средняя 
[As op]
-14.5 -17.6 77 -18  1015  1.9  750  320           
03 26.01.13 300 (СЗ) 10 км  слаб. снег  10/8 700 м средняя 
[Sc|As op]
-17.6 -20 81 -22  1017.8  2.6  752  325  -17.6    0.1  44  равномерный
сухой снег
100% 
06 26.01.13 310 (СЗ) 10 км  {снег}  ясно 
-19.7 -21.8 83 -22  1020.8  2.8  754  329  -19.7         
09 26.01.13 260 (З) >10 км    ясно 
-17.1 -20.5 75 -20  1022.2  1.5  755  326           
12 26.01.13 250 (З) >10 км    ясно 
-16.2 -19.3 77 -19  1023.5  1.3  756  325           
15 26.01.13 170 (Ю) 10 км    ясно 
-17.8 -20.1 82 -18  1024.2  0.6  756  328    -16  0.0     
18 26.01.13 170 (Ю) 10 км    ясно 
-19.1 -21.2 84 -19  1024.8  0.5  757  329           
21 26.01.13 240 (ЮЗ) 10 км    9/9 750 м 
[Sc]
-16.3 -18.4 84 -19  1024.9  0.3  757  326           
00 27.01.13 250 (З) 10 км    10/0 средняя 
[As op]
-15.7 -17.7 85 -18  1024.8  0.1  757  325           
03 27.01.13 240 (ЮЗ) 10 км  слаб. снег  10/0 средняя 
[As op]
-14.6 -16.3 87 -18  1025.7  0.9  758  324  -19.4    0.0  44  равномерный
сухой снег
100% 
06 27.01.13 240 (ЮЗ) 10 км  слаб. снег  10/0 средняя 
[As op]
-14.2 -15.9 87 -18  1026.3  0.6  758  324           
09 27.01.13 240 (ЮЗ) 10 км  {снег}  10/0 средняя 
[Ac As]
-13.3 -16 80 -15  1026.7  0.5  758  323           
12 27.01.13 170 (Ю) 10 км  {снег}  9/0 средняя 
[Ac As]
-11.9 -15.2 76 -12  1026  -0.6  758  321           
15 27.01.13 240 (ЮЗ) 10 км    10/0 средняя 
[Ac As]
-12.7 -15.8 77 -15  1026.5  0.4  758  322    -11.4  0.0     
18 27.01.13 250 (З) 10 км    10/0 средняя 
[As trans]
-12.4 -16.5 72 -16  1026.6  -0.1  758  321           
21 27.01.13 250 (З) 10 км    9/0 верхняя 
[Cs]
-13.7 -17.8 71 -16  1027.1  0.5  759  323           
00 28.01.13 250 (З) 10 км    9/0 верхняя 
[Cs]
-14.8 -18.9 71 -17  1028.5  1.3  760  325           
03 28.01.13 240 (ЮЗ) 10 км    ясно 
-15 -19.4 69 -17  1029.6  760  326  -15.3      44  равномерный
сухой снег
100% 
06 28.01.13 180 (Ю) 10 км    ясно 
-15.9 -20 71 -16  1030.9  1.3  761  327  -16.2         
09 28.01.13 230 (ЮЗ) 10 км    ясно 
-11.1 -18.8 53 -11  1031.9  1.2  762  322           
12 28.01.13 160 (Ю) 10 км    6/0 верхняя 
[Ci fib]
-12.1 -18.7 58 -14  1031.6  -0.3  762  323           
15 28.01.13 160 (Ю) 10 км    ясно 
-14.9 -20.3 63 -17  1031.6  -0.2  762  326    -9       
18 28.01.13 160 (Ю) 10 км    ясно 
-16.2 -20.6 69 -19  1030.8  -0.9  761  328           
21 28.01.13 160 (Ю) 10 км    9/0 средняя 
[Ac lent]
-16 -20.1 70 -18  1030.2  -0.6  761  327           
00 29.01.13 160 (Ю) 10 км    10/5 1300 м средняя 
[Sc|Ac As]
-14.2 -20.3 60 -16  1028.8  -1.3  760  325           
03 29.01.13 160 (Ю) 10 км    10/10 1500 м 
[St]
-12.2 -18.3 60 -12  1027.8  -0.9  759  322  -16.9      44  равномерный
сухой снег
100% 
06 29.01.13 170 (Ю) 10 км    10/0 средняя 
[As op]
-10.6 -17 59 -12  1027.3  -0.4  759  320           
09 29.01.13 170 (Ю) 10 км    10/0 средняя 
[Ac lent]
-9.7 -15.3 63 -11  1026.8  -0.5  759  318           
12 29.01.13 140 (ЮВ) 10 км    9/0 средняя 
[Ac trans]
-9 -14.3 65 -9  1026.5  -0.3  758  317           
15 29.01.13 170 (Ю) 10 км    10/0 средняя 
[Ac cast]
-9.6 -15.9 60 -11  1026.1  -0.4  758  318    -9       
18 29.01.13 160 (Ю) 10 км    4/0 средняя 
[Ac lent]
-12.2 -18.6 59 -14  1026.2  0.1  758  321           
21 29.01.13 150 (ЮВ) 10 км    5/0 средняя 
[Ac lent]
-14.5 -20.3 61 -18  1025.8  -0.5  758  324           
00 30.01.13 150 (ЮВ) 10 км    5/0 средняя, верхняя 
[Ac lent|Ci fib]
-15.8 -21.8 60 -20  1025.9  758  326           
03 30.01.13 150 (ЮВ) 10 км    8/0 средняя, верхняя 
[Ac lent|Cs]
-16.6 -22.6 60 -20  1025.9  758  327  -16.6      44  равномерный
сухой снег
100% 
06 30.01.13 160 (Ю) 10 км    8/0 средняя, верхняя 
[Ac As|Ci sp]
-16.3 -21.6 63 -20  1026.3  0.4  758  326  -16.7         
09 30.01.13 160 (Ю) 10 км    10/0 средняя, верхняя 
[Ac As|Ci fib]
-13.6 -19.3 62 -16  1025.8  -0.3  758  323           
12 30.01.13 160 (Ю) 10 км    10/3 600 м средняя 
[Sc|As op]
-12.6 -18.4 62 -15  1025.2  -0.6  757  321           
15 30.01.13 150 (ЮВ) 10 км    8/8 600 м 
[Sc]
-11.9 -17.7 62 -15  1024.7  -0.4  757  320    -11.9       
18 30.01.13 150 (ЮВ) 10 км    10/0 средняя 
[Ac As]
-12.3 -17.8 63 -16  1024  -0.7  756  321           
21 30.01.13 150 (ЮВ) 10 км    10/0 средняя 
[Ac As]
-11.7 -17.6 62 -15  1023.7  -0.2  756  320           
00 31.01.13 150 (ЮВ) 10 км    ясно 
-12.4 -18.6 60 -14  1023  -0.7  756  320           
03 31.01.13 150 (ЮВ) 10 км    3/0 верхняя 
[Ci fib]
-12.5 -20 53 -15  1022  -1  755  320  -12.8      43  равномерный
сухой снег
100% 
06 31.01.13 110 (В) >10 км    3/0 средняя 
[Ac lent]
-12.8 -20.7 52 -15  1021.5  -0.6  755  321  -13         
09 31.01.13 110 (В) >10 км    4/0 средняя 
[Ac lent]
-9.7 -20.8 40 -11  1019.8  -1.5  753  316           
12 31.01.13 110 (В) >10 км    8/0 средняя 
[Ac As]
-7.8 -18.3 43 -9  1018.1  -1.5  752  313           
15 31.01.13 100 (В) 10 км    8/0 средняя 
[Ac cast]
-7.7 -16.5 49 -9  1016.7  -1.4  751  313    -7.5       
18 31.01.13 110 (В) 10 км    8/0 средняя 
[Ac cast]
-7.3 -14.5 56 -9  1015.1  -1.5  750  312           
21 31.01.13 120 (ЮВ) 10 км    9/0 средняя, верхняя 
[Ac cast|Ci sp]
-8.1 -13.6 64 -10  1014  -1.2  749  312           
00 01.02.13 тихо ()   10 км    9/4 600 м средняя 
[Sc|Ac trans]
-8.7 -13.2 70 -9  1012  -2  748  312           
03 01.02.13 120 (ЮВ) 10 км    8/3 600 м средняя 
[Sc|Ac trans]
-9.2 -13.6 70 -9  1010.7  -1.2  747  313  -9.2      43  равномерный
сухой снег
100% 
06 01.02.13 110 (В) 10 км    8/0 верхняя 
[Cs]
-9.5 -13.8 71 -11  1009.8  -0.9  746  313  -9.6         
09 01.02.13 160 (Ю) 10 км    9/0 верхняя 
[Cs]
-7.7 -13 66 -7  1009  -0.7  746  310           
12 01.02.13 110 (В) 10 км    6/0 верхняя 
[Cs]
-7.3 -12.5 66 -9  1008.5  -0.4  745  310           
15 01.02.13 120 (ЮВ) 10 км    8/0 верхняя 
[Cs]
-8.9 -12.4 76 -9  1008.8  0.2  745  312    -5.8       
18 01.02.13 тихо ()   10 км    8/0 верхняя 
[Ci fib]
-10.6 -13.3 81 -11  1008.4  -0.5  745  313           
21 01.02.13 130 (ЮВ) 10 км    4/0 верхняя 
[Ci fib]
-10.9 -13.1 84 -11  1008.3  0.1  745  314           
00 02.02.13 160 (Ю) 10 км    ясно 
-12.8 -14.5 87 -13  1008.6  0.2  745  316           
03 02.02.13 150 (ЮВ) 10 км    3/0 верхняя 
[Ci fib]
-13.3 -14.8 88 -13  1009.2  0.5  745  317  -13.4      43  равномерный
сухой снег
100% 
06 02.02.13 150 (ЮВ) 0500 м  туман [диам. изморози 4 мм]  9/0 средняя 
[Ac As]
-14.6 -16.2 87 -17  1010.8  1.5  747  319  -14.6         
09 02.02.13 150 (ЮВ) 10 км  {туман} [диам. изморози 5 мм]  9/0 средняя 
[Ac As]
-11 -12.5 89 -13  1011.6  747  315           
12 02.02.13 140 (ЮВ) 4000 м  слаб. снег{туман} [диам. изморози 5 мм]  10/0 средняя 
[As op]
-9.5 -11.6 85 -11  1012.6  1.1  748  313           
15 02.02.13 150 (ЮВ) 4000 м  слаб. снег  10/10 700 м 
[Sc]
-9.1 -11 86 -11  1014.8  2.1  750  314    -9.1  0.2     
18 02.02.13 150 (ЮВ) 10 км  {снег}  10/8 600 м средняя 
[Sc|Ac As]
-8.8 -10.4 88 -10  1015.6  0.8  750  313           
21 02.02.13 150 (ЮВ) 10 км  слаб. снег  10/10 600 м 
[Sc]
-7.9 -9.5 88 -8  1017.1  1.6  752  313           
Время (UTC), дата Ветер
(°,м/с) 
Видим.   Явления Облачность Т
(°С)
Тd
(°С)
f(%) Тe
(°С)
Pmin
(гПа)
dP
(гПа)
Po
(мм)
O2
(г/м3)
Тmin Tmax R s Состояние
почвы